COSMOS 1275 DEB, 12670

Orbit data source: Space-Track

COSMOS 1275 DEB, 12670 is space debris in LEO originally from a launch on Thu, 04 Jun 1981 UTC launched from the Plesetsk Missile And Space Complex (PKMTR). Debris objects in space refer to the collection of defunct objects orbiting the Earth. Examples of debris include non-operational satellites, rocket bodies, and fragments generated from explosions, collisions, or faulty payload assembly.

Loading next visibility...
Identifier
12670, 1981-053AA
Orbit
LEO
Country
Flag of CISCIS
Related business
Manufacturer
Unknown
Mission
Spacecraft
Bus & Motor
Unknown
Mass
Unknown
Launch date (UTC)
1981-06-04 (44 years ago)
Launch vehicle
Unknown
Launch site
Plesetsk Missile And Space Complex (PKMTR)
Object type
Payload
Rocket body
Debris
Shape & HBR
Unknown
Radar Cross Section
Medium (>0.1 m² and <1 m²)

Expand to show TLE details & history
Last TLE update: 15 hours ago

TLE from 15 hours ago
0 COSMOS 1275 DEB
1 12670U 81053AA  25258.19881882  .00000473  00000-0  42896-3 0  9996
2 12670  82.9397  50.3689 0056986 119.7001  61.6555 13.80850538215816
Epoch: 2025-09-15T04:46Z
TLE epoch observation values (Epoch: 2025-09-15T04:46:17.946Z)
Latitude
-2.04503°
Longitude
164.63929°
Altitude
944.393 km
Speed
7.389 km/s
True Right ascension
15h 22m 29s
True Declination
-2° 01' 59"
Sunlit
Object was in daylight at epoch
Visualization orbit readout
Latitude
Unknown
Longitude
Unknown
Altitude
Unknown
Speed
Unknown
Apparent Right ascension
Unknown
Apparent Declination
Unknown
Sunlit
N/A
Visualization observer readout
Local Sidereal Time
12:52:45
Azimuth
Unknown
Elevation
Unknown
Doppler factor
Unknown
Orbital elements
Apogee altitude
999.818 km
Perigee altitude
916.206 km
Semi-major axis
7,336.149 km
Eccentricity
0.0057
Inclination
82.9397°
RAAN
50.3689°
Arg. of periapsis
119.7001°
True anomaly
62.23216°
Mean anomaly
61.6555°
Eccentric anomaly
61.94364°
Mean motion
3.45415 °/min
Orbital period
104.22 mins
BSTAR
0.00042896
Loading maneuver chart data...
Computing Atmospheric mass density...
Loading historical data...
Loading historical data...
Loading historical data...
Loading historical data...
Loading historical data...
Loading historical data...
Loading historical data...

Documentation

Showing up to 5 results
|